Change the Weather History Date:

Monday, March 25, 2013

  Actual Average Record
Temperature  
Mean Temperature 24 °F -  
Max Temperature 33 °F 42 °F 72 °F (2007)
Min Temperature 17 °F 17 °F -6 °F (1971)
Degree Days  
Heating Degree Days 40    
Moisture  
Dew Point 20 °F    
Average Humidity 77    
Maximum Humidity 93    
Minimum Humidity 64    
Precipitation  
Precipitation 0.00 in - - ()
Sea Level Pressure  
Sea Level Pressure 30.14 in    
Wind  
Wind Speed 6 mph (North)    
Max Wind Speed 14 mph    
Max Gust Speed -    
Visibility 10 miles    
Events      
Averages and records for this station are not official NWS values.
T = Trace of Precipitation, MM = Missing Value Source: NWS Daily Summary

Daily Weather History Graph

Daily Weather History Graph

Search for Another Location

Airport or City:

Trip Planner

Search our weather history database for the weather conditions in past years. The results will help you decide how hot, cold, wet, or windy it might be!

Date:

Astronomy

Mar. 25, 2013 Rise Set
Actual Time 6:56 AM CDT 7:23 PM CDT
Civil Twilight 6:26 AM CDT 7:53 PM CDT
Nautical Twilight 5:50 AM CDT 8:29 PM CDT
Astronomical Twilight 5:13 AM CDT 9:06 PM CDT
Moon 5:52 PM CDT (3/25) 5:44 AM CDT (3/25)
Length of Visible Light 13h 27m
Length of Day
12h 27m
Waxing Gibbous, 96% of the Moon is Illuminated
Mar 25
Waxing Gibbous
Mar 27
Full
Apr 2
Last Quarter
Apr 10
New
Apr 18
First Quarter

Hourly Weather History & Observations

Time (CDT) Temp. Windchill Dew Point Humidity Pressure Visibility Wind Dir Wind Speed Gust Speed Precip Events Conditions
12:53 AM 17.1 °F 10.0 °F 14.0 °F 88% 30.09 in 10.0 mi NNW 4.6 mph - N/A   Clear
1:53 AM 21.0 °F 14.6 °F 17.1 °F 85% 30.08 in 10.0 mi NNW 4.6 mph - N/A   Clear
2:53 AM 21.0 °F 13.4 °F 17.1 °F 85% 30.07 in 10.0 mi NNW 5.8 mph - N/A   Clear
3:53 AM 19.9 °F 12.1 °F 16.0 °F 85% 30.06 in 10.0 mi NW 5.8 mph - N/A   Clear
4:53 AM 18.0 °F 11.1 °F 14.0 °F 84% 30.08 in 10.0 mi NW 4.6 mph - N/A   Partly Cloudy
5:53 AM 18.0 °F 12.7 °F 14.0 °F 84% 30.09 in 10.0 mi NNW 3.5 mph - N/A   Clear
6:12 AM 17.6 °F 12.3 °F 15.8 °F 93% 30.04 in 10.0 mi NNW 3.5 mph - N/A   Mostly Cloudy
6:53 AM 21.9 °F 14.5 °F 17.1 °F 82% 30.09 in 10.0 mi North 5.8 mph - N/A   Overcast
7:53 AM 23.0 °F 13.9 °F 19.0 °F 85% 30.12 in 10.0 mi North 8.1 mph - N/A   Overcast
8:53 AM 26.1 °F 15.6 °F 19.9 °F 78% 30.13 in 10.0 mi North 11.5 mph - N/A   Overcast
9:53 AM 28.0 °F 18.6 °F 21.9 °F 78% 30.14 in 10.0 mi North 10.4 mph - N/A   Overcast
10:53 AM 28.9 °F 19.2 °F 21.9 °F 75% 30.15 in 10.0 mi North 11.5 mph - N/A   Overcast
11:53 AM 30.0 °F 19.5 °F 23.0 °F 75% 30.16 in 10.0 mi NNE 13.8 mph - N/A   Overcast
12:28 PM 32.0 °F 23.6 °F 24.8 °F 75% 30.12 in 10.0 mi North 10.4 mph - N/A   Overcast
12:53 PM 32.0 °F 23.0 °F 21.9 °F 66% 30.16 in 10.0 mi NNE 11.5 mph - N/A   Mostly Cloudy
1:53 PM 32.0 °F 22.1 °F 21.9 °F 66% 30.16 in 10.0 mi NNE 13.8 mph - N/A   Overcast
2:53 PM 32.0 °F 23.6 °F 21.0 °F 64% 30.16 in 10.0 mi North 10.4 mph - N/A   Overcast
3:53 PM 30.9 °F 22.8 °F 21.9 °F 69% 30.17 in 10.0 mi ENE 9.2 mph - N/A   Overcast
4:53 PM 30.9 °F 24.3 °F 23.0 °F 72% 30.17 in 10.0 mi ENE 6.9 mph - N/A   Overcast
5:53 PM 32.0 °F - 21.9 °F 66% 30.18 in 10.0 mi Calm Calm - N/A   Overcast
6:53 PM 32.0 °F - 21.9 °F 66% 30.19 in 10.0 mi Calm Calm - N/A   Overcast
7:53 PM 30.0 °F - 23.0 °F 75% 30.21 in 10.0 mi Calm Calm - N/A   Overcast
8:53 PM 30.0 °F - 23.0 °F 75% 30.22 in 10.0 mi Calm Calm - N/A   Overcast
9:53 PM 28.9 °F - 23.0 °F 78% 30.23 in 10.0 mi Calm Calm - N/A   Overcast
10:53 PM 28.9 °F - 24.1 °F 82% 30.23 in 10.0 mi Calm Calm - N/A   Overcast
11:53 PM 28.0 °F - 23.0 °F 81% 30.23 in 10.0 mi Calm Calm - 0.00 in   Overcast